Location: Capannuccia
(43.7000°N, 11.3000°E)
Time: 03:09:50
(UTC+00:00)

Cosmos 2322 - Pass Details

Date: 07 June 2020
Orbit: 840 x 855 km, 71.0° (Epoch: 11 July)

Event Time Altitude Azimuth Distance (km) Brightness Sun altitude
Exits shadow 02:43:43 - 210° (SSW) 2,625 5.7 -7.9°
Reaches altitude 10° 02:44:07 10° 211° (SSW) 2,472 5.5 -7.9°
Maximum altitude 02:49:48 74° 296° (WNW) 890 3.8 -7.1°
Drops below altitude 10° 02:55:32 10° 22° (NNE) 2,495 7.3 -6.3°
Sets 02:58:01 0° 24° (NNE) 3,435 8.2 -6.0°
